QPF
0.06 0.05 0.04 0.05 0.04 0.04 0.04 0.04 0.03 0.04 0.05 0.05 0.05 0.06 0.06 0.05 0.04 0.03 0.03 0.04 0.04 0.03 0.03 0.04 0.04 0.03 0.03 0.03 0.04 0.04 0.05 0.06 0.06 0.06 0.07 0.07 0.09 0.09 0.07 0.07 0.06 0.06 0.05
0.09 0.07 0.06 0.05 0.04 0.03 0.04 0.04 0.04 0.05 0.05 0.05 0.03 0.04 0.05 0.06 0.07 0.05 0.04 0.05 0.05 0.05 0.04 0.04 0.04 0.04 0.03 0.03 0.04 0.05 0.05 0.05 0.05 0.05 0.05 0.05 0.07 0.08 0.08 0.07 0.07 0.06 0.04
0.15 0.12 0.08 0.07 0.05 0.04 0.05 0.06 0.06 0.06 0.06 0.05 0.03 0.03 0.03 0.03 0.04 0.04 0.03 0.03 0.04 0.03 0.03 0.02 0.02 0.03 0.03 0.03 0.03 0.03 0.03 0.04 0.05 0.06 0.05 0.05 0.08 0.09 0.09 0.07 0.07 0.07 0.05
0.14 0.16 0.12 0.09 0.07 0.07 0.08 0.07 0.07 0.07 0.07 0.05 0.03 0.03 0.02 0.03 0.02 0.01 0.01 0.01 0.02 0.02 0.03 0.02 0.02 0.02 0.03 0.03 0.04 0.04 0.04 0.04 0.05 0.06 0.07 0.07 0.09 0.11 0.11 0.10 0.09 0.08 0.07
0.07 0.09 0.10 0.11 0.10 0.09 0.09 0.09 0.08 0.07 0.06 0.04 0.03 0.03 0.01 0.01 0.02 0.01 0.02 0.02 0.02 0.02 0.03 0.02 0.02 0.03 0.03 0.04 0.04 0.04 0.04 0.04 0.04 0.05 0.06 0.08 0.09 0.09 0.08 0.08 0.09 0.09 0.09
0.06 0.06 0.07 0.07 0.07 0.08 0.10 0.10 0.09 0.08 0.07 0.05 0.03 0.02 0.02 0.01 0.02 0.02 0.02 0.01 0.01 0.01 0.02 0.02 0.02 0.02 0.02 0.03 0.03 0.03 0.03 0.03 0.04 0.05 0.05 0.05 0.06 0.06 0.05 0.05 0.06 0.08 0.08
0.06 0.06 0.07 0.09 0.07 0.08 0.11 0.11 0.10 0.11 0.10 0.07 0.06 0.05 0.03 0.03 0.03 0.03 0.02 0.02 0.01 0.01 0.02 0.02 0.03 0.03 0.02 0.02 0.02 0.02 0.02 0.02 0.03 0.04 0.04 0.04 0.03 0.02 0.02 0.03 0.04 0.06 0.07
0.06 0.06 0.08 0.12 0.12 0.11 0.11 0.11 0.11 0.10 0.08 0.08 0.08 0.08 0.06 0.05 0.03 0.02 0.02 0.03 0.02 0.02 0.03 0.04 0.04 0.04 0.03 0.04 0.04 0.02 0.02 0.01 0.02 0.03 0.04 0.04 0.05 0.04 0.03 0.03 0.03 0.04 0.05
0.05 0.05 0.05 0.06 0.08 0.09 0.09 0.09 0.09 0.09 0.08 0.07 0.07 0.08 0.08 0.06 0.06 0.04 0.03 0.02 0.02 0.03 0.03 0.03 0.04 0.04 0.05 0.05 0.04 0.03 0.03 0.02 0.02 0.03 0.04 0.04 0.07 0.06 0.04 0.03 0.03 0.03 0.03
0.06 0.06 0.06 0.05 0.05 0.06 0.06 0.06 0.07 0.07 0.08 0.07 0.08 0.08 0.06 0.07 0.08 0.08 0.07 0.04 0.03 0.03 0.03 0.03 0.03 0.06 0.07 0.06 0.04 0.03 0.02 0.01 0.01 0.02 0.05 0.07 0.09 0.08 0.05 0.04 0.03 0.04 0.04
0.05 0.05 0.06 0.06 0.07 0.07 0.05 0.05 0.06 0.06 0.07 0.07 0.07 0.09 0.09 0.08 0.08 0.08 0.09 0.09 0.08 0.05 0.03 0.02 0.03 0.05 0.05 0.04 0.03 0.02 0.02 0.02 0.01 0.01 0.02 0.05 0.08 0.08 0.04 0.03 0.02 0.04 0.05
0.05 0.05 0.05 0.07 0.08 0.07 0.06 0.05 0.05 0.04 0.05 0.06 0.07 0.08 0.09 0.10 0.08 0.07 0.07 0.07 0.07 0.06 0.04 0.03 0.03 0.03 0.02 0.02 0.02 0.03 0.03 0.02 0.01 0.01 0.01 0.02 0.04 0.08 0.06 0.04 0.03 0.03 0.05
0.05 0.05 0.06 0.07 0.08 0.08 0.07 0.07 0.07 0.06 0.06 0.07 0.08 0.09 0.09 0.09 0.08 0.07 0.08 0.07 0.06 0.05 0.06 0.03 0.02 0.01 0.02 0.02 0.03 0.03 0.02 0.02 0.02 0.01 0.01 0.04 0.03 0.05 0.07 0.05 0.04 0.03 0.05
0.04 0.05 0.05 0.05 0.05 0.05 0.06 0.09 0.09 0.09 0.10 0.10 0.09 0.09 0.10 0.09 0.10 0.09 0.09 0.09 0.08 0.07 0.07 0.04 0.02 0.02 0.01 0.01 0.02 0.03 0.02 0.01 0.01 0.01 0.01 0.04 0.06 0.05 0.08 0.06 0.05 0.03 0.03
0.04 0.04 0.04 0.04 0.04 0.05 0.06 0.08 0.08 0.09 0.10 0.09 0.08 0.08 0.09 0.09 0.09 0.07 0.07 0.08 0.08 0.08 0.06 0.04 0.02 0.02 0.02 0.02 0.02 0.02 0.01 0.01 0.01 0.01 0.01 0.02 0.05 0.07 0.08 0.07 0.06 0.03 0.02
0.03 0.03 0.03 0.04 0.04 0.05 0.05 0.07 0.08 0.09 0.10 0.09 0.08 0.08 0.08 0.07 0.07 0.07 0.06 0.06 0.07 0.07 0.05 0.04 0.04 0.02 0.02 0.02 0.02 0.02 0.02 0.02 0.01 0.01 0.00 0.01 0.02 0.06 0.11 0.06 0.06 0.04 0.02
0.02 0.02 0.02 0.03 0.03 0.04 0.06 0.08 0.08 0.09 0.09 0.09 0.08 0.07 0.06 0.05 0.05 0.05 0.05 0.06 0.07 0.07 0.06 0.04 0.04 0.03 0.03 0.03 0.03 0.03 0.03 0.02 0.01 0.01 0.01 0.00 0.01 0.03 0.09 0.07 0.05 0.05 0.03
0.02 0.03 0.02 0.02 0.03 0.04 0.05 0.06 0.06 0.07 0.07 0.06 0.07 0.06 0.05 0.05 0.05 0.05 0.05 0.05 0.05 0.06 0.06 0.05 0.04 0.03 0.03 0.03 0.03 0.03 0.03 0.01 0.01 0.01 0.01 0.01 0.01 0.02 0.05 0.07 0.04 0.04 0.03
0.02 0.02 0.02 0.03 0.03 0.04 0.04 0.03 0.04 0.05 0.06 0.05 0.05 0.05 0.04 0.05 0.05 0.05 0.05 0.05 0.05 0.04 0.04 0.04 0.04 0.04 0.03 0.02 0.03 0.03 0.04 0.04 0.02 0.01 0.01 0.01 0.02 0.02 0.04 0.07 0.05 0.03 0.03
0.03 0.03 0.02 0.03 0.03 0.04 0.04 0.05 0.05 0.05 0.06 0.05 0.05 0.05 0.05 0.05 0.05 0.04 0.04 0.05 0.05 0.06 0.06 0.05 0.05 0.04 0.04 0.03 0.02 0.03 0.04 0.04 0.03 0.02 0.01 0.01 0.01 0.02 0.03 0.05 0.05 0.03 0.03
0.03 0.03 0.04 0.04 0.03 0.04 0.05 0.05 0.06 0.06 0.07 0.06 0.06 0.06 0.06 0.06 0.05 0.04 0.03 0.03 0.04 0.05 0.06 0.05 0.05 0.04 0.04 0.04 0.03 0.02 0.03 0.04 0.04 0.03 0.02 0.01 0.02 0.02 0.03 0.04 0.05 0.04 0.03
0.04 0.05 0.05 0.06 0.06 0.05 0.04 0.04 0.05 0.06 0.06 0.06 0.06 0.06 0.06 0.05 0.05 0.03 0.02 0.01 0.03 0.04 0.05 0.06 0.05 0.04 0.05 0.04 0.03 0.03 0.03 0.04 0.04 0.03 0.03 0.02 0.02 0.03 0.03 0.04 0.04 0.04 0.04
0.03 0.04 0.05 0.06 0.06 0.04 0.04 0.04 0.04 0.05 0.05 0.07 0.07 0.06 0.04 0.03 0.03 0.02 0.01 0.01 0.02 0.03 0.05 0.06 0.06 0.04 0.05 0.05 0.04 0.03 0.04 0.05 0.05 0.03 0.03 0.03 0.03 0.03 0.04 0.03 0.03 0.03 0.03
0.04 0.04 0.04 0.05 0.05 0.03 0.03 0.02 0.02 0.03 0.04 0.05 0.05 0.05 0.05 0.05 0.03 0.02 0.02 0.02 0.02 0.03 0.02 0.02 0.03 0.03 0.03 0.04 0.04 0.03 0.03 0.03 0.04 0.03 0.03 0.03 0.04 0.04 0.03 0.03 0.03 0.04 0.05
0.05 0.05 0.05 0.05 0.04 0.02 0.02 0.02 0.02 0.02 0.03 0.04 0.04 0.04 0.03 0.03 0.02 0.01 0.01 0.02 0.02 0.02 0.02 0.02 0.02 0.02 0.03 0.03 0.03 0.03 0.02 0.02 0.02 0.02 0.02 0.03 0.04 0.04 0.03 0.03 0.03 0.04 0.06
0.05 0.05 0.05 0.04 0.03 0.03 0.01 0.01 0.02 0.02 0.03 0.03 0.03 0.03 0.02 0.01 0.00 0.01 0.01 0.02 0.02 0.03 0.04 0.04 0.04 0.03 0.02 0.02 0.02 0.02 0.02 0.03 0.02 0.02 0.01 0.03 0.03 0.04 0.04 0.03 0.03 0.04 0.05
MSLP
1011.28 1011.60 1011.84 1012.06 1012.27 1012.49 1012.74 1012.99 1013.23 1013.43 1013.57 1013.64 1013.65 1013.62 1013.57 1013.52 1013.48 1013.49 1013.52 1013.57 1013.65 1013.75 1013.86 1013.99 1014.15 1014.33 1014.53 1014.74 1014.95 1015.15 1015.33 1015.49 1015.63 1015.76 1015.89 1016.03 1016.19 1016.36 1016.55 1016.74 1016.93 1017.10 1017.26
1011.30 1011.58 1011.79 1011.97 1012.14 1012.32 1012.52 1012.75 1012.98 1013.21 1013.41 1013.57 1013.68 1013.75 1013.79 1013.80 1013.80 1013.80 1013.81 1013.82 1013.85 1013.90 1013.97 1014.07 1014.20 1014.36 1014.54 1014.72 1014.89 1015.05 1015.18 1015.28 1015.36 1015.44 1015.53 1015.63 1015.75 1015.89 1016.04 1016.19 1016.34 1016.49 1016.65
1011.29 1011.53 1011.72 1011.87 1012.01 1012.16 1012.34 1012.56 1012.81 1013.07 1013.34 1013.60 1013.83 1014.02 1014.16 1014.26 1014.32 1014.34 1014.33 1014.31 1014.28 1014.28 1014.30 1014.35 1014.44 1014.56 1014.69 1014.82 1014.94 1015.04 1015.11 1015.16 1015.19 1015.23 1015.27 1015.33 1015.41 1015.51 1015.61 1015.71 1015.81 1015.92 1016.04
1011.26 1011.47 1011.65 1011.79 1011.92 1012.06 1012.23 1012.45 1012.71 1013.02 1013.36 1013.70 1014.04 1014.34 1014.60 1014.79 1014.90 1014.95 1014.95 1014.90 1014.85 1014.79 1014.76 1014.77 1014.81 1014.87 1014.95 1015.03 1015.09 1015.13 1015.14 1015.14 1015.13 1015.13 1015.14 1015.17 1015.21 1015.26 1015.30 1015.34 1015.38 1015.43 1015.50
1011.24 1011.44 1011.62 1011.77 1011.91 1012.06 1012.24 1012.46 1012.73 1013.05 1013.43 1013.83 1014.24 1014.64 1014.98 1015.24 1015.42 1015.51 1015.52 1015.47 1015.39 1015.31 1015.25 1015.22 1015.21 1015.24 1015.28 1015.31 1015.32 1015.31 1015.28 1015.24 1015.20 1015.17 1015.16 1015.16 1015.17 1015.17 1015.16 1015.13 1015.10 1015.07 1015.06
1011.28 1011.49 1011.69 1011.88 1012.05 1012.22 1012.40 1012.61 1012.87 1013.18 1013.55 1013.97 1014.41 1014.84 1015.23 1015.55 1015.77 1015.89 1015.93 1015.89 1015.81 1015.73 1015.66 1015.61 1015.60 1015.61 1015.63 1015.64 1015.63 1015.60 1015.54 1015.48 1015.42 1015.38 1015.34 1015.32 1015.30 1015.26 1015.20 1015.10 1014.99 1014.87 1014.77
1011.46 1011.70 1011.94 1012.18 1012.39 1012.58 1012.76 1012.95 1013.16 1013.43 1013.75 1014.13 1014.54 1014.96 1015.35 1015.68 1015.92 1016.07 1016.12 1016.11 1016.06 1015.99 1015.94 1015.91 1015.92 1015.95 1015.98 1016.00 1015.99 1015.96 1015.91 1015.85 1015.78 1015.73 1015.69 1015.65 1015.60 1015.52 1015.41 1015.25 1015.06 1014.85 1014.66
1011.82 1012.10 1012.40 1012.70 1012.95 1013.16 1013.33 1013.48 1013.63 1013.81 1014.05 1014.34 1014.69 1015.05 1015.40 1015.71 1015.94 1016.09 1016.15 1016.16 1016.14 1016.10 1016.09 1016.11 1016.16 1016.23 1016.31 1016.36 1016.39 1016.38 1016.35 1016.30 1016.24 1016.19 1016.15 1016.10 1016.03 1015.92 1015.76 1015.55 1015.29 1015.00 1014.73
1012.39 1012.73 1013.09 1013.43 1013.73 1013.95 1014.10 1014.20 1014.28 1014.36 1014.49 1014.68 1014.92 1015.19 1015.47 1015.72 1015.92 1016.05 1016.12 1016.14 1016.13 1016.13 1016.16 1016.23 1016.34 1016.46 1016.59 1016.70 1016.78 1016.81 1016.81 1016.78 1016.73 1016.69 1016.64 1016.58 1016.50 1016.37 1016.18 1015.93 1015.62 1015.28 1014.95
1013.14 1013.53 1013.95 1014.33 1014.65 1014.88 1015.01 1015.06 1015.06 1015.05 1015.08 1015.15 1015.29 1015.47 1015.67 1015.85 1016.00 1016.10 1016.14 1016.15 1016.15 1016.17 1016.23 1016.33 1016.48 1016.65 1016.83 1016.98 1017.10 1017.17 1017.20 1017.19 1017.16 1017.12 1017.07 1017.00 1016.91 1016.77 1016.57 1016.30 1015.98 1015.61 1015.24
1014.00 1014.43 1014.87 1015.28 1015.62 1015.84 1015.95 1015.96 1015.90 1015.82 1015.77 1015.76 1015.82 1015.92 1016.05 1016.17 1016.27 1016.32 1016.33 1016.31 1016.29 1016.30 1016.35 1016.45 1016.61 1016.80 1017.00 1017.18 1017.32 1017.41 1017.45 1017.45 1017.42 1017.38 1017.33 1017.26 1017.17 1017.03 1016.84 1016.58 1016.25 1015.89 1015.51
1014.86 1015.30 1015.76 1016.17 1016.50 1016.72 1016.81 1016.79 1016.71 1016.59 1016.50 1016.45 1016.46 1016.51 1016.60 1016.68 1016.73 1016.74 1016.71 1016.65 1016.59 1016.55 1016.56 1016.63 1016.76 1016.92 1017.10 1017.27 1017.40 1017.48 1017.51 1017.50 1017.46 1017.41 1017.35 1017.28 1017.19 1017.07 1016.89 1016.66 1016.37 1016.03 1015.67
1015.62 1016.05 1016.49 1016.89 1017.21 1017.41 1017.49 1017.47 1017.38 1017.27 1017.18 1017.13 1017.13 1017.18 1017.26 1017.32 1017.36 1017.33 1017.26 1017.15 1017.03 1016.92 1016.86 1016.86 1016.92 1017.02 1017.13 1017.25 1017.33 1017.37 1017.36 1017.32 1017.26 1017.18 1017.11 1017.03 1016.95 1016.84 1016.70 1016.51 1016.27 1015.98 1015.66
1016.21 1016.61 1017.02 1017.39 1017.68 1017.87 1017.95 1017.94 1017.87 1017.79 1017.73 1017.71 1017.75 1017.83 1017.92 1018.00 1018.03 1018.00 1017.89 1017.73 1017.55 1017.37 1017.22 1017.12 1017.08 1017.08 1017.11 1017.14 1017.14 1017.11 1017.05 1016.95 1016.84 1016.73 1016.63 1016.54 1016.46 1016.38 1016.27 1016.13 1015.94 1015.71 1015.45
1016.62 1016.98 1017.35 1017.68 1017.95 1018.12 1018.21 1018.22 1018.18 1018.13 1018.12 1018.15 1018.24 1018.36 1018.50 1018.60 1018.65 1018.61 1018.49 1018.30 1018.07 1017.82 1017.59 1017.39 1017.25 1017.14 1017.06 1016.98 1016.89 1016.78 1016.63 1016.47 1016.30 1016.14 1016.00 1015.89 1015.80 1015.73 1015.65 1015.55 1015.41 1015.24 1015.04
1016.91 1017.22 1017.54 1017.84 1018.08 1018.25 1018.33 1018.36 1018.35 1018.34 1018.36 1018.44 1018.57 1018.74 1018.90 1019.04 1019.11 1019.09 1018.97 1018.77 1018.51 1018.21 1017.92 1017.64 1017.41 1017.20 1017.02 1016.84 1016.66 1016.45 1016.22 1015.98 1015.74 1015.52 1015.33 1015.18 1015.07 1014.99 1014.92 1014.85 1014.76 1014.63 1014.49
1017.14 1017.42 1017.71 1017.98 1018.20 1018.35 1018.44 1018.47 1018.48 1018.48 1018.53 1018.62 1018.77 1018.95 1019.13 1019.29 1019.38 1019.38 1019.28 1019.08 1018.82 1018.51 1018.18 1017.86 1017.56 1017.29 1017.03 1016.77 1016.50 1016.21 1015.90 1015.59 1015.27 1014.98 1014.73 1014.53 1014.38 1014.27 1014.19 1014.12 1014.05 1013.96 1013.85
1017.41 1017.67 1017.94 1018.20 1018.41 1018.56 1018.64 1018.67 1018.67 1018.66 1018.69 1018.77 1018.90 1019.06 1019.24 1019.39 1019.49 1019.50 1019.42 1019.25 1019.00 1018.70 1018.38 1018.05 1017.72 1017.41 1017.10 1016.79 1016.46 1016.10 1015.73 1015.34 1014.95 1014.59 1014.27 1014.00 1013.79 1013.64 1013.53 1013.45 1013.38 1013.30 1013.22
1017.77 1018.03 1018.30 1018.56 1018.77 1018.91 1018.99 1019.00 1018.98 1018.94 1018.93 1018.96 1019.03 1019.15 1019.29 1019.41 1019.49 1019.51 1019.45 1019.31 1019.09 1018.82 1018.52 1018.21 1017.88 1017.56 1017.23 1016.89 1016.52 1016.12 1015.70 1015.25 1014.80 1014.37 1013.98 1013.64 1013.36 1013.15 1012.99 1012.88 1012.79 1012.71 1012.64
1018.22 1018.49 1018.77 1019.04 1019.25 1019.40 1019.46 1019.46 1019.41 1019.33 1019.26 1019.22 1019.23 1019.27 1019.35 1019.43 1019.48 1019.49 1019.44 1019.32 1019.13 1018.90 1018.63 1018.34 1018.03 1017.72 1017.39 1017.03 1016.64 1016.22 1015.76 1015.27 1014.77 1014.29 1013.83 1013.42 1013.08 1012.80 1012.58 1012.42 1012.31 1012.21 1012.13
1018.69 1018.97 1019.27 1019.55 1019.78 1019.93 1019.99 1019.98 1019.89 1019.77 1019.65 1019.55 1019.48 1019.46 1019.47 1019.50 1019.51 1019.50 1019.45 1019.33 1019.17 1018.96 1018.71 1018.44 1018.14 1017.83 1017.50 1017.14 1016.75 1016.31 1015.84 1015.33 1014.80 1014.28 1013.77 1013.31 1012.91 1012.57 1012.29 1012.08 1011.92 1011.80 1011.70
1019.09 1019.39 1019.70 1019.99 1020.23 1020.38 1020.45 1020.43 1020.34 1020.20 1020.04 1019.89 1019.77 1019.70 1019.65 1019.63 1019.61 1019.58 1019.50 1019.39 1019.22 1019.01 1018.76 1018.48 1018.19 1017.87 1017.53 1017.16 1016.76 1016.33 1015.85 1015.34 1014.81 1014.26 1013.74 1013.24 1012.80 1012.41 1012.08 1011.82 1011.61 1011.45 1011.32
1019.35 1019.65 1019.96 1020.25 1020.49 1020.66 1020.74 1020.73 1020.64 1020.50 1020.34 1020.18 1020.04 1019.93 1019.86 1019.81 1019.77 1019.70 1019.61 1019.47 1019.28 1019.04 1018.77 1018.46 1018.13 1017.79 1017.42 1017.04 1016.64 1016.20 1015.74 1015.24 1014.73 1014.20 1013.68 1013.18 1012.71 1012.29 1011.92 1011.61 1011.35 1011.14 1010.96
1019.41 1019.70 1019.99 1020.27 1020.51 1020.69 1020.78 1020.79 1020.74 1020.62 1020.48 1020.34 1020.22 1020.12 1020.05 1019.99 1019.93 1019.85 1019.73 1019.55 1019.33 1019.04 1018.72 1018.36 1017.97 1017.58 1017.18 1016.77 1016.35 1015.93 1015.48 1015.02 1014.55 1014.06 1013.57 1013.09 1012.63 1012.20 1011.80 1011.44 1011.13 1010.85 1010.60
1019.29 1019.55 1019.82 1020.08 1020.31 1020.49 1020.61 1020.65 1020.63 1020.57 1020.47 1020.37 1020.28 1020.21 1020.16 1020.11 1020.05 1019.95 1019.81 1019.60 1019.33 1018.99 1018.61 1018.18 1017.73 1017.27 1016.82 1016.38 1015.96 1015.54 1015.13 1014.71 1014.29 1013.87 1013.43 1012.99 1012.56 1012.13 1011.71 1011.32 1010.94 1010.58 1010.25
1019.06 1019.28 1019.52 1019.77 1019.99 1020.18 1020.31 1020.39 1020.41 1020.39 1020.34 1020.29 1020.24 1020.20 1020.17 1020.14 1020.08 1019.98 1019.82 1019.59 1019.27 1018.89 1018.44 1017.95 1017.44 1016.93 1016.43 1015.96 1015.53 1015.12 1014.74 1014.38 1014.03 1013.67 1013.30 1012.92 1012.52 1012.11 1011.68 1011.25 1010.81 1010.37 1009.93
Thickness
5743 5741 5740 5739 5738 5738 5737 5736 5736 5736 5735 5735 5735 5734 5733 5732 5730 5728 5725 5724 5722 5721 5719 5717 5716 5715 5714 5713 5712 5711 5710 5709 5708 5707 5706 5705 5705 5704 5704 5704 5704 5704 5703
5739 5738 5736 5735 5735 5735 5734 5733 5733 5732 5732 5732 5731 5731 5730 5728 5726 5723 5721 5719 5718 5717 5715 5714 5712 5712 5711 5710 5709 5707 5706 5705 5704 5704 5703 5703 5702 5701 5701 5701 5701 5700 5700
5736 5734 5733 5732 5731 5732 5731 5730 5730 5729 5728 5728 5727 5727 5726 5724 5721 5719 5718 5716 5714 5712 5711 5710 5708 5707 5706 5706 5704 5703 5702 5701 5700 5699 5699 5699 5698 5698 5698 5697 5697 5697 5696
5733 5731 5730 5728 5728 5728 5727 5726 5725 5723 5722 5722 5722 5722 5722 5720 5718 5716 5714 5713 5711 5708 5706 5705 5704 5703 5702 5701 5700 5699 5698 5697 5696 5695 5695 5695 5694 5694 5694 5693 5693 5693 5693
5729 5728 5727 5725 5725 5724 5723 5722 5721 5719 5717 5717 5717 5718 5718 5716 5714 5712 5710 5709 5707 5705 5703 5701 5699 5698 5697 5696 5696 5695 5694 5692 5691 5691 5690 5690 5690 5689 5689 5689 5689 5689 5688
5725 5724 5723 5722 5721 5720 5718 5717 5716 5715 5714 5713 5714 5713 5713 5712 5710 5708 5706 5705 5703 5702 5700 5698 5696 5694 5693 5692 5691 5690 5689 5688 5687 5686 5686 5685 5685 5684 5684 5684 5684 5684 5684
5722 5721 5720 5718 5717 5715 5713 5712 5712 5710 5709 5710 5706 5704 5706 5707 5705 5703 5702 5700 5699 5698 5697 5695 5693 5691 5690 5688 5687 5685 5685 5684 5683 5682 5681 5681 5680 5680 5679 5679 5678 5678 5678
5718 5718 5716 5715 5714 5712 5709 5708 5707 5704 5704 5705 5701 5695 5692 5693 5697 5700 5698 5695 5695 5694 5693 5692 5690 5689 5687 5685 5683 5681 5680 5679 5679 5678 5677 5676 5676 5675 5675 5674 5673 5673 5673
5715 5714 5712 5711 5710 5709 5706 5704 5703 5701 5698 5700 5699 5693 5686 5683 5687 5691 5692 5692 5691 5690 5689 5689 5688 5686 5684 5682 5679 5677 5676 5675 5674 5673 5672 5672 5671 5670 5670 5669 5668 5668 5667
5713 5711 5710 5708 5707 5705 5704 5702 5701 5699 5696 5693 5694 5694 5691 5688 5682 5680 5684 5687 5687 5685 5685 5685 5683 5682 5680 5678 5676 5674 5672 5671 5669 5668 5667 5666 5666 5665 5664 5664 5663 5663 5662
5711 5709 5707 5706 5704 5703 5701 5699 5697 5696 5694 5691 5690 5689 5688 5686 5684 5677 5675 5678 5680 5682 5682 5681 5680 5678 5676 5674 5672 5670 5668 5667 5665 5664 5662 5661 5660 5659 5659 5658 5658 5657 5657
5708 5706 5705 5703 5701 5700 5699 5697 5694 5693 5690 5688 5687 5685 5683 5680 5679 5677 5674 5673 5673 5676 5678 5678 5677 5675 5673 5671 5669 5667 5665 5663 5661 5659 5657 5656 5655 5654 5653 5652 5652 5651 5651
5704 5703 5703 5700 5698 5697 5695 5693 5691 5689 5687 5685 5683 5682 5681 5681 5680 5677 5673 5671 5671 5673 5674 5674 5674 5672 5670 5668 5665 5663 5661 5659 5657 5654 5652 5651 5649 5648 5647 5645 5644 5644 5644
5702 5702 5700 5698 5696 5694 5692 5690 5688 5686 5684 5683 5681 5679 5678 5678 5678 5676 5672 5668 5665 5666 5667 5668 5669 5668 5667 5664 5662 5660 5657 5655 5652 5650 5648 5646 5643 5642 5640 5639 5637 5636 5636
5699 5698 5696 5694 5692 5691 5689 5686 5684 5683 5681 5679 5677 5675 5674 5674 5674 5674 5672 5668 5661 5657 5658 5662 5662 5663 5662 5660 5658 5656 5654 5651 5649 5647 5644 5641 5639 5637 5634 5632 5631 5630 5629
5694 5693 5691 5690 5688 5687 5685 5683 5681 5680 5677 5675 5673 5671 5669 5670 5669 5669 5668 5666 5663 5657 5654 5657 5657 5658 5657 5656 5654 5652 5650 5648 5645 5643 5640 5638 5635 5632 5630 5627 5625 5624 5623
5690 5688 5687 5685 5684 5682 5681 5679 5677 5676 5673 5670 5668 5667 5665 5665 5663 5663 5662 5661 5659 5656 5651 5652 5654 5654 5652 5651 5649 5648 5646 5644 5643 5640 5638 5635 5632 5629 5626 5624 5622 5619 5618
5685 5684 5683 5681 5680 5678 5677 5675 5672 5671 5668 5665 5664 5662 5660 5660 5658 5656 5655 5654 5653 5652 5648 5646 5647 5648 5647 5647 5645 5643 5643 5642 5640 5638 5635 5632 5629 5626 5624 5621 5619 5616 5614
5681 5680 5678 5677 5675 5674 5673 5671 5669 5666 5664 5662 5660 5658 5657 5654 5652 5651 5649 5648 5647 5648 5646 5643 5642 5643 5643 5643 5641 5639 5639 5637 5636 5635 5632 5628 5626 5623 5621 5618 5616 5614 5612
5677 5676 5675 5673 5671 5670 5669 5667 5665 5662 5660 5659 5657 5654 5653 5651 5648 5646 5645 5644 5643 5641 5640 5639 5638 5638 5638 5638 5636 5633 5631 5631 5629 5629 5627 5625 5622 5619 5617 5615 5613 5611 5608
5674 5673 5671 5669 5668 5666 5664 5661 5659 5657 5655 5653 5652 5650 5649 5648 5645 5642 5641 5639 5638 5636 5635 5634 5633 5633 5631 5630 5628 5628 5625 5625 5624 5623 5620 5620 5618 5616 5613 5611 5608 5606 5603
5670 5669 5667 5665 5663 5662 5659 5656 5654 5652 5651 5649 5647 5646 5645 5643 5642 5639 5637 5636 5635 5632 5630 5628 5627 5626 5625 5625 5624 5622 5619 5617 5615 5617 5614 5612 5612 5611 5609 5607 5605 5602 5599
5666 5664 5663 5661 5659 5656 5653 5651 5648 5647 5646 5645 5644 5642 5642 5641 5638 5635 5633 5632 5631 5630 5628 5624 5621 5620 5620 5620 5618 5616 5613 5611 5610 5611 5608 5606 5606 5604 5604 5602 5600 5597 5594
5662 5660 5659 5658 5655 5651 5648 5646 5644 5643 5642 5641 5640 5639 5637 5635 5633 5631 5630 5628 5627 5626 5624 5622 5619 5618 5618 5617 5614 5612 5610 5609 5609 5609 5606 5601 5601 5599 5599 5596 5593 5591 5588
5658 5657 5656 5654 5651 5647 5643 5641 5639 5639 5638 5637 5637 5635 5633 5631 5629 5627 5625 5624 5623 5621 5621 5620 5618 5616 5613 5612 5610 5607 5605 5603 5602 5602 5601 5597 5596 5594 5592 5590 5587 5585 5582
5654 5654 5653 5651 5649 5644 5640 5638 5635 5636 5635 5634 5633 5632 5630 5628 5625 5623 5621 5619 5617 5617 5616 5615 5613 5612 5610 5609 5607 5603 5600 5597 5596 5595 5596 5592 5589 5586 5584 5584 5582 5579 5576